Year,Month,Day,Hour,Minute,Value (Times are PST for temperature in C)
2018,10,16,00,00,7.10
2018,10,16,00,01,7.10
2018,10,16,00,02,7.10
2018,10,16,00,03,7.10
2018,10,16,00,04,7.00
2018,10,16,00,05,7.00
2018,10,16,00,06,7.00
2018,10,16,00,07,6.90
2018,10,16,00,08,6.90
2018,10,16,00,09,6.90
2018,10,16,00,10,6.90
2018,10,16,00,11,6.90
2018,10,16,00,12,6.90
2018,10,16,00,13,6.90
2018,10,16,00,14,6.90
2018,10,16,00,15,6.90
2018,10,16,00,16,6.90
2018,10,16,00,17,6.80
2018,10,16,00,18,6.80
2018,10,16,00,19,6.80
2018,10,16,00,20,6.80
2018,10,16,00,21,6.80
2018,10,16,00,22,6.80
2018,10,16,00,23,6.80
2018,10,16,00,24,6.80
2018,10,16,00,25,6.80
2018,10,16,00,26,6.80
2018,10,16,00,27,6.80
2018,10,16,00,28,6.80
2018,10,16,00,29,6.80
2018,10,16,00,30,6.80
2018,10,16,00,31,6.70
2018,10,16,00,32,6.70
2018,10,16,00,33,6.80
2018,10,16,00,34,6.70
2018,10,16,00,35,6.70
2018,10,16,00,36,6.70
2018,10,16,00,37,6.70
2018,10,16,00,38,6.70
2018,10,16,00,39,6.70
2018,10,16,00,40,6.80
2018,10,16,00,41,6.80
2018,10,16,00,42,6.80
2018,10,16,00,43,6.70
2018,10,16,00,44,6.70
2018,10,16,00,45,6.70
2018,10,16,00,46,6.70
2018,10,16,00,47,6.70
2018,10,16,00,48,6.70
2018,10,16,00,49,6.70
2018,10,16,00,50,6.70
2018,10,16,00,51,6.70
2018,10,16,00,52,6.70
2018,10,16,00,53,6.60
2018,10,16,00,54,6.60
2018,10,16,00,55,6.60
2018,10,16,00,56,6.60
2018,10,16,00,57,6.60
2018,10,16,00,58,6.60
2018,10,16,00,59,6.60
2018,10,16,01,00,6.60
2018,10,16,01,01,6.60
2018,10,16,01,02,6.60
2018,10,16,01,03,6.60
2018,10,16,01,04,6.60
2018,10,16,01,05,6.60
2018,10,16,01,06,6.60
2018,10,16,01,07,6.60
2018,10,16,01,08,6.60
2018,10,16,01,09,6.50
2018,10,16,01,10,6.50
2018,10,16,01,11,6.50
2018,10,16,01,12,6.50
2018,10,16,01,13,6.50
2018,10,16,01,14,6.50
2018,10,16,01,15,6.50
2018,10,16,01,16,6.50
2018,10,16,01,17,6.40
2018,10,16,01,18,6.40
2018,10,16,01,19,6.40
2018,10,16,01,20,6.40
2018,10,16,01,21,6.40
2018,10,16,01,22,6.40
2018,10,16,01,23,6.40
2018,10,16,01,24,6.40
2018,10,16,01,25,6.40
2018,10,16,01,26,6.40
2018,10,16,01,27,6.30
2018,10,16,01,28,6.30
2018,10,16,01,29,6.30
2018,10,16,01,30,6.30
2018,10,16,01,31,6.30
2018,10,16,01,32,6.30
2018,10,16,01,33,6.30
2018,10,16,01,34,6.30
2018,10,16,01,35,6.30
2018,10,16,01,36,6.30
2018,10,16,01,37,6.30
2018,10,16,01,38,6.30
2018,10,16,01,39,6.30
2018,10,16,01,40,6.30
2018,10,16,01,41,6.30
2018,10,16,01,42,6.30
2018,10,16,01,43,6.30
2018,10,16,01,44,6.30
2018,10,16,01,45,6.30
2018,10,16,01,46,6.30
2018,10,16,01,47,6.30
2018,10,16,01,48,6.30
2018,10,16,01,49,6.30
2018,10,16,01,50,6.30
2018,10,16,01,51,6.30
2018,10,16,01,52,6.30
2018,10,16,01,53,6.30
2018,10,16,01,54,6.40
2018,10,16,01,55,6.40
2018,10,16,01,56,6.30
2018,10,16,01,57,6.30
2018,10,16,01,58,6.30
2018,10,16,01,59,6.30
2018,10,16,02,00,6.30
2018,10,16,02,01,6.30
2018,10,16,02,02,6.30
2018,10,16,02,03,6.30
2018,10,16,02,04,6.30
2018,10,16,02,05,6.30
2018,10,16,02,06,6.30
2018,10,16,02,07,6.30
2018,10,16,02,08,6.20
2018,10,16,02,09,6.20
2018,10,16,02,10,6.20
2018,10,16,02,11,6.20
2018,10,16,02,12,6.20
2018,10,16,02,13,6.20
2018,10,16,02,14,6.20
2018,10,16,02,15,6.20
2018,10,16,02,16,6.20
2018,10,16,02,17,6.20
2018,10,16,02,18,6.20
2018,10,16,02,19,6.10
2018,10,16,02,20,6.20
2018,10,16,02,21,6.20
2018,10,16,02,22,6.20
2018,10,16,02,23,6.20
2018,10,16,02,24,6.20
2018,10,16,02,25,6.20
2018,10,16,02,26,6.10
2018,10,16,02,27,6.10
2018,10,16,02,28,6.10
2018,10,16,02,29,6.10
2018,10,16,02,30,6.10
2018,10,16,02,31,6.10
2018,10,16,02,32,6.10
2018,10,16,02,33,6.10
2018,10,16,02,34,6.10
2018,10,16,02,35,6.10
2018,10,16,02,36,6.10
2018,10,16,02,37,6.10
2018,10,16,02,38,6.10
2018,10,16,02,39,6.10
2018,10,16,02,40,6.10
2018,10,16,02,41,6.10
2018,10,16,02,42,6.10
2018,10,16,02,43,6.10
2018,10,16,02,44,6.10
2018,10,16,02,45,6.10
2018,10,16,02,46,6.10
2018,10,16,02,47,6.10
2018,10,16,02,48,6.10
2018,10,16,02,49,6.10
2018,10,16,02,50,6.20
2018,10,16,02,51,6.20
2018,10,16,02,52,6.20
2018,10,16,02,53,6.20
2018,10,16,02,54,6.20
2018,10,16,02,55,6.20
2018,10,16,02,56,6.10
2018,10,16,02,57,6.10
2018,10,16,02,58,6.10
2018,10,16,02,59,6.10
2018,10,16,03,00,6.10
2018,10,16,03,01,6.20
2018,10,16,03,02,6.20
2018,10,16,03,03,6.20
2018,10,16,03,04,6.20
2018,10,16,03,05,6.20
2018,10,16,03,06,6.20
2018,10,16,03,07,6.20
2018,10,16,03,08,6.20
2018,10,16,03,09,6.20
2018,10,16,03,10,6.20
2018,10,16,03,11,6.20
2018,10,16,03,12,6.20
2018,10,16,03,13,6.20
2018,10,16,03,14,6.20
2018,10,16,03,15,6.20
2018,10,16,03,16,6.20
2018,10,16,03,17,6.10
2018,10,16,03,18,6.10
2018,10,16,03,19,6.10
2018,10,16,03,20,6.10
2018,10,16,03,21,6.10
2018,10,16,03,22,6.10
2018,10,16,03,23,6.00
2018,10,16,03,24,6.00
2018,10,16,03,25,6.00
2018,10,16,03,26,6.00
2018,10,16,03,27,6.00
2018,10,16,03,28,6.00
2018,10,16,03,29,5.90
2018,10,16,03,30,5.90
2018,10,16,03,31,5.90
2018,10,16,03,32,5.90
2018,10,16,03,33,5.90
2018,10,16,03,34,5.90
2018,10,16,03,35,5.90
2018,10,16,03,36,5.90
2018,10,16,03,37,5.90
2018,10,16,03,38,5.90
2018,10,16,03,39,5.80
2018,10,16,03,40,5.80
2018,10,16,03,41,5.80
2018,10,16,03,42,5.80
2018,10,16,03,43,5.80
2018,10,16,03,44,5.80
2018,10,16,03,45,5.80
2018,10,16,03,46,5.80
2018,10,16,03,47,5.80
2018,10,16,03,48,5.80
2018,10,16,03,49,5.80
2018,10,16,03,50,5.80
2018,10,16,03,51,5.80
2018,10,16,03,52,5.80
2018,10,16,03,53,5.80
2018,10,16,03,54,5.80
2018,10,16,03,55,5.80
2018,10,16,03,56,5.80
2018,10,16,03,57,5.80
2018,10,16,03,58,5.80
2018,10,16,03,59,5.80
2018,10,16,04,00,5.80
2018,10,16,04,01,5.80
2018,10,16,04,02,5.80
2018,10,16,04,03,5.80
2018,10,16,04,04,5.80
2018,10,16,04,05,5.80
2018,10,16,04,06,5.80
2018,10,16,04,07,5.70
2018,10,16,04,08,5.70
2018,10,16,04,09,5.70
2018,10,16,04,10,5.70
2018,10,16,04,11,5.70
2018,10,16,04,12,5.70
2018,10,16,04,13,5.70
2018,10,16,04,14,5.70
2018,10,16,04,15,5.80
2018,10,16,04,16,5.80
2018,10,16,04,17,5.80
2018,10,16,04,18,5.80
2018,10,16,04,19,5.80
2018,10,16,04,20,5.80
2018,10,16,04,21,5.80
2018,10,16,04,22,5.80
2018,10,16,04,23,5.80
2018,10,16,04,24,5.80
2018,10,16,04,25,5.80
2018,10,16,04,26,5.80
2018,10,16,04,27,5.80
2018,10,16,04,28,5.80
2018,10,16,04,29,5.80
2018,10,16,04,30,5.80
2018,10,16,04,31,5.80
2018,10,16,04,32,5.80
2018,10,16,04,33,5.80
2018,10,16,04,34,5.80
2018,10,16,04,35,5.80
2018,10,16,04,36,5.80
2018,10,16,04,37,5.80
2018,10,16,04,38,5.80
2018,10,16,04,39,5.80
2018,10,16,04,40,5.80
2018,10,16,04,41,5.80
2018,10,16,04,42,5.80
2018,10,16,04,43,5.80
2018,10,16,04,44,5.80
2018,10,16,04,45,5.80
2018,10,16,04,46,5.80
2018,10,16,04,47,5.80
2018,10,16,04,48,5.90
2018,10,16,04,49,5.90
2018,10,16,04,50,5.90
2018,10,16,04,51,5.90
2018,10,16,04,52,5.90
2018,10,16,04,53,5.90
2018,10,16,04,54,5.90
2018,10,16,04,55,5.90
2018,10,16,04,56,5.90
2018,10,16,04,57,5.90
2018,10,16,04,58,5.90
2018,10,16,04,59,5.90
2018,10,16,05,00,5.90
2018,10,16,05,01,5.90
2018,10,16,05,02,5.90
2018,10,16,05,03,5.80
2018,10,16,05,04,5.80
2018,10,16,05,05,5.80
2018,10,16,05,06,5.80
2018,10,16,05,07,5.80
2018,10,16,05,08,5.80
2018,10,16,05,09,5.90
2018,10,16,05,10,5.90
2018,10,16,05,11,5.90
2018,10,16,05,12,5.90
2018,10,16,05,13,5.90
2018,10,16,05,14,5.90
2018,10,16,05,15,5.90
2018,10,16,05,16,5.90
2018,10,16,05,17,5.80
2018,10,16,05,18,5.80
2018,10,16,05,19,5.80
2018,10,16,05,20,5.80
2018,10,16,05,21,5.80
2018,10,16,05,22,5.80
2018,10,16,05,23,5.80
2018,10,16,05,24,5.80
2018,10,16,05,25,5.80
2018,10,16,05,26,5.80
2018,10,16,05,27,5.80
2018,10,16,05,28,5.80
2018,10,16,05,29,5.80
2018,10,16,05,30,5.80
2018,10,16,05,31,5.80
2018,10,16,05,32,5.80
2018,10,16,05,33,5.80
2018,10,16,05,34,5.80
2018,10,16,05,35,5.80
2018,10,16,05,36,5.80
2018,10,16,05,37,5.80
2018,10,16,05,38,5.80
2018,10,16,05,39,5.80
2018,10,16,05,40,5.70
2018,10,16,05,41,5.70
2018,10,16,05,42,5.70
2018,10,16,05,43,5.70
2018,10,16,05,44,5.70
2018,10,16,05,45,5.70
2018,10,16,05,46,5.70
2018,10,16,05,47,5.70
2018,10,16,05,48,5.70
2018,10,16,05,49,5.70
2018,10,16,05,50,5.70
2018,10,16,05,51,5.70
2018,10,16,05,52,5.70
2018,10,16,05,53,5.70
2018,10,16,05,54,5.70
2018,10,16,05,55,5.70
2018,10,16,05,56,5.70
2018,10,16,05,57,5.60
2018,10,16,05,58,5.60
2018,10,16,05,59,5.60
2018,10,16,06,00,5.70
2018,10,16,06,01,5.70
2018,10,16,06,02,5.70
2018,10,16,06,03,5.70
2018,10,16,06,04,5.70
2018,10,16,06,05,5.70
2018,10,16,06,06,5.70
2018,10,16,06,07,5.60
2018,10,16,06,08,5.60
2018,10,16,06,09,5.60
2018,10,16,06,10,5.60
2018,10,16,06,11,5.60
2018,10,16,06,12,5.60
2018,10,16,06,13,5.60
2018,10,16,06,14,5.60
2018,10,16,06,15,5.60
2018,10,16,06,16,5.60
2018,10,16,06,17,5.60
2018,10,16,06,18,5.60
2018,10,16,06,19,5.60
2018,10,16,06,20,5.60
2018,10,16,06,21,5.60
2018,10,16,06,22,5.60
2018,10,16,06,23,5.60
2018,10,16,06,24,5.60
2018,10,16,06,25,5.60
2018,10,16,06,26,5.60
2018,10,16,06,27,5.60
2018,10,16,06,28,5.60
2018,10,16,06,29,5.60
2018,10,16,06,30,5.60
2018,10,16,06,31,5.50
2018,10,16,06,32,5.50
2018,10,16,06,33,5.50
2018,10,16,06,34,5.50
2018,10,16,06,35,5.50
2018,10,16,06,36,5.50
2018,10,16,06,37,5.50
2018,10,16,06,38,5.50
2018,10,16,06,39,5.50
2018,10,16,06,40,5.50
2018,10,16,06,41,5.50
2018,10,16,06,42,5.50
2018,10,16,06,43,5.60
2018,10,16,06,44,5.50
2018,10,16,06,45,5.50
2018,10,16,06,46,5.50
2018,10,16,06,47,5.60
2018,10,16,06,48,5.50
2018,10,16,06,49,5.50
2018,10,16,06,50,5.50
2018,10,16,06,51,5.50
2018,10,16,06,52,5.50
2018,10,16,06,53,5.50
2018,10,16,06,54,5.50
2018,10,16,06,55,5.50
2018,10,16,06,56,5.40
2018,10,16,06,57,5.40
2018,10,16,06,58,5.40
2018,10,16,06,59,5.40
2018,10,16,07,00,5.40
2018,10,16,07,01,5.40
2018,10,16,07,02,5.40
2018,10,16,07,03,5.40
2018,10,16,07,04,5.40
2018,10,16,07,05,5.40
2018,10,16,07,06,5.40
2018,10,16,07,07,5.50
2018,10,16,07,08,5.50
2018,10,16,07,09,5.50
2018,10,16,07,10,5.50
2018,10,16,07,11,5.50
2018,10,16,07,12,5.50
2018,10,16,07,13,5.50
2018,10,16,07,14,5.50
2018,10,16,07,15,5.50
2018,10,16,07,16,5.50
2018,10,16,07,17,5.50
2018,10,16,07,18,5.50
2018,10,16,07,19,5.40
2018,10,16,07,20,5.40
2018,10,16,07,21,5.40
2018,10,16,07,22,5.40
2018,10,16,07,23,5.40
2018,10,16,07,24,5.40
2018,10,16,07,25,5.40
2018,10,16,07,26,5.40
2018,10,16,07,27,5.40
2018,10,16,07,28,5.40
2018,10,16,07,29,5.40
2018,10,16,07,30,5.40
2018,10,16,07,31,5.40
2018,10,16,07,32,5.40
2018,10,16,07,33,5.40
2018,10,16,07,34,5.40
2018,10,16,07,35,5.40
2018,10,16,07,36,5.40
2018,10,16,07,37,5.30
2018,10,16,07,38,5.30
2018,10,16,07,39,5.30
2018,10,16,07,40,5.30
2018,10,16,07,41,5.30
2018,10,16,07,42,5.30
2018,10,16,07,43,5.30
2018,10,16,07,44,5.30
2018,10,16,07,45,5.30
2018,10,16,07,46,5.30
2018,10,16,07,47,5.30
2018,10,16,07,48,5.30
2018,10,16,07,49,5.30
2018,10,16,07,50,5.30
2018,10,16,07,51,5.30
2018,10,16,07,52,5.30
2018,10,16,07,53,5.40
2018,10,16,07,54,5.40
2018,10,16,07,55,5.40
2018,10,16,07,56,5.40
2018,10,16,07,57,5.40
2018,10,16,07,58,5.40
2018,10,16,07,59,5.40
2018,10,16,08,00,5.40
2018,10,16,08,01,5.40
2018,10,16,08,02,5.40
2018,10,16,08,03,5.40
2018,10,16,08,04,5.40
2018,10,16,08,05,5.40
2018,10,16,08,06,5.40
2018,10,16,08,07,5.40
2018,10,16,08,08,5.40
2018,10,16,08,09,5.40
2018,10,16,08,10,5.40
2018,10,16,08,11,5.40
2018,10,16,08,12,5.40
2018,10,16,08,13,5.40
2018,10,16,08,14,5.40
2018,10,16,08,15,5.40
2018,10,16,08,16,5.40
2018,10,16,08,17,5.40
2018,10,16,08,18,5.40
2018,10,16,08,19,5.40
2018,10,16,08,20,5.40
2018,10,16,08,21,5.40
2018,10,16,08,22,5.40
2018,10,16,08,23,5.40
2018,10,16,08,24,5.50
2018,10,16,08,25,5.50
2018,10,16,08,26,5.50
2018,10,16,08,27,5.60
2018,10,16,08,28,5.60
2018,10,16,08,29,5.60
2018,10,16,08,30,5.60
2018,10,16,08,31,5.70
2018,10,16,08,32,5.70
2018,10,16,08,33,5.70
2018,10,16,08,34,5.70
2018,10,16,08,35,5.70
2018,10,16,08,36,5.80
2018,10,16,08,37,5.80
2018,10,16,08,38,5.80
2018,10,16,08,39,5.80
2018,10,16,08,40,5.80
2018,10,16,08,41,5.90
2018,10,16,08,42,5.90
2018,10,16,08,43,5.90
2018,10,16,08,44,6.00
2018,10,16,08,45,6.00
2018,10,16,08,46,6.10
2018,10,16,08,47,6.10
2018,10,16,08,48,6.10
2018,10,16,08,49,6.20
2018,10,16,08,50,6.20
2018,10,16,08,51,6.20
2018,10,16,08,52,6.20
2018,10,16,08,53,6.30
2018,10,16,08,54,6.30
2018,10,16,08,55,6.30
2018,10,16,08,56,6.30
2018,10,16,08,57,6.30
2018,10,16,08,58,6.30
2018,10,16,08,59,6.40
2018,10,16,09,00,6.40
2018,10,16,09,01,6.40
2018,10,16,09,02,6.40
2018,10,16,09,03,6.40
2018,10,16,09,04,6.40
2018,10,16,09,05,6.50
2018,10,16,09,06,6.50
2018,10,16,09,07,6.60
2018,10,16,09,08,6.60
2018,10,16,09,09,6.70
2018,10,16,09,10,6.70
2018,10,16,09,11,6.80
2018,10,16,09,12,6.80
2018,10,16,09,13,6.90
2018,10,16,09,14,6.90
2018,10,16,09,15,7.00
2018,10,16,09,16,7.00
2018,10,16,09,17,7.10
2018,10,16,09,18,7.20
2018,10,16,09,19,7.20
2018,10,16,09,20,7.20
2018,10,16,09,21,7.30
2018,10,16,09,22,7.30
2018,10,16,09,23,7.40
2018,10,16,09,24,7.50
2018,10,16,09,25,7.50
2018,10,16,09,26,7.60
2018,10,16,09,27,7.70
2018,10,16,09,28,7.70
2018,10,16,09,29,7.80
2018,10,16,09,30,7.80
2018,10,16,09,31,7.90
2018,10,16,09,32,7.90
2018,10,16,09,33,7.90
2018,10,16,09,34,8.00
2018,10,16,09,35,8.00
2018,10,16,09,36,8.10
2018,10,16,09,37,8.20
2018,10,16,09,38,8.20
2018,10,16,09,39,8.30
2018,10,16,09,40,8.30
2018,10,16,09,41,8.30
2018,10,16,09,42,8.40
2018,10,16,09,43,8.40
2018,10,16,09,44,8.40
2018,10,16,09,45,8.40
2018,10,16,09,46,8.50
2018,10,16,09,47,8.50
2018,10,16,09,48,8.60
2018,10,16,09,49,8.60
2018,10,16,09,50,8.60
2018,10,16,09,51,8.70
2018,10,16,09,52,8.70
2018,10,16,09,53,8.80
2018,10,16,09,54,8.80
2018,10,16,09,55,8.90
2018,10,16,09,56,9.00
2018,10,16,09,57,9.00
2018,10,16,09,58,9.00
2018,10,16,09,59,9.10
2018,10,16,10,00,9.10
2018,10,16,10,01,9.20
2018,10,16,10,02,9.20
2018,10,16,10,03,9.30
2018,10,16,10,04,9.30
2018,10,16,10,05,9.30
2018,10,16,10,06,9.40
2018,10,16,10,07,9.50
2018,10,16,10,08,9.50
2018,10,16,10,09,9.60
2018,10,16,10,10,9.60
2018,10,16,10,11,9.70
2018,10,16,10,12,9.80
2018,10,16,10,13,9.90
2018,10,16,10,14,10.00
2018,10,16,10,15,10.00
2018,10,16,10,16,10.10
2018,10,16,10,17,10.20
2018,10,16,10,18,10.40
2018,10,16,10,19,10.50
2018,10,16,10,20,10.70
2018,10,16,10,21,10.80
2018,10,16,10,22,10.90
2018,10,16,10,23,11.00
2018,10,16,10,24,11.20
2018,10,16,10,25,11.30
2018,10,16,10,26,11.50
2018,10,16,10,27,11.60
2018,10,16,10,28,11.70
2018,10,16,10,29,11.80
2018,10,16,10,30,11.90
2018,10,16,10,31,12.00
2018,10,16,10,32,12.00
2018,10,16,10,33,12.10
2018,10,16,10,34,12.20
2018,10,16,10,35,12.30
2018,10,16,10,36,12.30
2018,10,16,10,37,12.40
2018,10,16,10,38,12.40
2018,10,16,10,39,12.50
2018,10,16,10,40,12.60
2018,10,16,10,41,12.60
2018,10,16,10,42,12.70
2018,10,16,10,43,12.80
2018,10,16,10,44,12.80
2018,10,16,10,45,12.90
2018,10,16,10,46,13.00
2018,10,16,10,47,13.00
2018,10,16,10,48,13.00
2018,10,16,10,49,13.10
2018,10,16,10,50,13.10
2018,10,16,10,51,13.10
2018,10,16,10,52,13.10
2018,10,16,10,53,13.20
2018,10,16,10,54,13.20
2018,10,16,10,55,13.30
2018,10,16,10,56,13.30
2018,10,16,10,57,13.30
2018,10,16,10,58,13.40
2018,10,16,10,59,13.40
2018,10,16,11,00,13.40
2018,10,16,11,01,13.50
2018,10,16,11,02,13.60
2018,10,16,11,03,13.70
2018,10,16,11,04,13.80
2018,10,16,11,05,13.90
2018,10,16,11,06,14.00
2018,10,16,11,07,14.10
2018,10,16,11,08,14.10
2018,10,16,11,09,14.20
2018,10,16,11,10,14.20
2018,10,16,11,11,14.30
2018,10,16,11,12,14.40
2018,10,16,11,13,14.40
2018,10,16,11,14,14.50
2018,10,16,11,15,14.60
2018,10,16,11,16,14.60
2018,10,16,11,17,14.70
2018,10,16,11,18,14.80
2018,10,16,11,19,14.90
2018,10,16,11,20,15.00
2018,10,16,11,21,15.00
2018,10,16,11,22,15.00
2018,10,16,11,23,15.10
2018,10,16,11,24,15.10
2018,10,16,11,25,15.20
2018,10,16,11,26,15.30
2018,10,16,11,27,15.30
2018,10,16,11,28,15.40
2018,10,16,11,29,15.50
2018,10,16,11,30,15.60
2018,10,16,11,31,15.70
2018,10,16,11,32,15.80
2018,10,16,11,33,15.90
2018,10,16,11,34,15.90
2018,10,16,11,35,16.00
2018,10,16,11,36,16.10
2018,10,16,11,37,16.20
2018,10,16,11,38,16.30
2018,10,16,11,39,16.40
2018,10,16,11,40,16.40
2018,10,16,11,41,16.50
2018,10,16,11,42,16.60
2018,10,16,11,43,16.70
2018,10,16,11,44,16.70
2018,10,16,11,45,16.70
2018,10,16,11,46,16.80
2018,10,16,11,47,16.80
2018,10,16,11,48,16.90
2018,10,16,11,49,16.90
2018,10,16,11,50,17.00
2018,10,16,11,51,17.10
2018,10,16,11,52,17.10
2018,10,16,11,53,17.20
2018,10,16,11,54,17.20
2018,10,16,11,55,17.20
2018,10,16,11,56,17.30
2018,10,16,11,57,17.30
2018,10,16,11,58,17.40
2018,10,16,11,59,17.40
2018,10,16,12,00,17.50
2018,10,16,12,01,17.50
2018,10,16,12,02,17.60
2018,10,16,12,03,17.60
2018,10,16,12,04,17.60
2018,10,16,12,05,17.60
2018,10,16,12,06,17.70
2018,10,16,12,07,17.70
2018,10,16,12,08,17.70
2018,10,16,12,09,17.80
2018,10,16,12,10,17.80
2018,10,16,12,11,17.90
2018,10,16,12,12,17.90
2018,10,16,12,13,18.00
2018,10,16,12,14,18.00
2018,10,16,12,15,18.10
2018,10,16,12,16,18.10
2018,10,16,12,17,18.10
2018,10,16,12,18,18.10
2018,10,16,12,19,18.20
2018,10,16,12,20,18.30
2018,10,16,12,21,18.30
2018,10,16,12,22,18.40
2018,10,16,12,23,18.40
2018,10,16,12,24,18.40
2018,10,16,12,25,18.50
2018,10,16,12,26,18.50
2018,10,16,12,27,18.40
2018,10,16,12,28,18.40
2018,10,16,12,29,18.40
2018,10,16,12,30,18.40
2018,10,16,12,31,18.40
2018,10,16,12,32,18.50
2018,10,16,12,33,18.50
2018,10,16,12,34,18.60
2018,10,16,12,35,18.60
2018,10,16,12,36,18.70
2018,10,16,12,37,18.70
2018,10,16,12,38,18.70
2018,10,16,12,39,18.80
2018,10,16,12,40,18.80
2018,10,16,12,41,18.90
2018,10,16,12,42,18.90
2018,10,16,12,43,18.90
2018,10,16,12,44,18.90
2018,10,16,12,45,19.00
2018,10,16,12,46,19.00
2018,10,16,12,47,19.10
2018,10,16,12,48,19.10
2018,10,16,12,49,19.20
2018,10,16,12,50,19.30
2018,10,16,12,51,19.40
2018,10,16,12,52,19.40
2018,10,16,12,53,19.40
2018,10,16,12,54,19.40
2018,10,16,12,55,19.40
2018,10,16,12,56,19.40
2018,10,16,12,57,19.40
2018,10,16,12,58,19.40
2018,10,16,12,59,19.40
2018,10,16,13,00,19.50
2018,10,16,13,01,19.50
2018,10,16,13,02,19.50
2018,10,16,13,03,19.50
2018,10,16,13,04,19.50
2018,10,16,13,05,19.60
2018,10,16,13,06,19.70
2018,10,16,13,07,19.80
2018,10,16,13,08,19.90
2018,10,16,13,09,20.10
2018,10,16,13,10,20.20
2018,10,16,13,11,20.30
2018,10,16,13,12,20.30
2018,10,16,13,13,20.30
2018,10,16,13,14,20.30
2018,10,16,13,15,20.40
2018,10,16,13,16,20.40
2018,10,16,13,17,20.50
2018,10,16,13,18,20.60
2018,10,16,13,19,20.70
2018,10,16,13,20,20.80
2018,10,16,13,21,20.90
2018,10,16,13,22,21.00
2018,10,16,13,23,21.10
2018,10,16,13,24,21.10
2018,10,16,13,25,21.20
2018,10,16,13,26,21.30
2018,10,16,13,27,21.40
2018,10,16,13,28,21.50
2018,10,16,13,29,21.50
2018,10,16,13,30,21.70
2018,10,16,13,31,21.80
2018,10,16,13,32,21.90
2018,10,16,13,33,22.00
2018,10,16,13,34,22.10
2018,10,16,13,35,22.20
2018,10,16,13,36,22.20
2018,10,16,13,37,22.30
2018,10,16,13,38,22.30
2018,10,16,13,39,22.40
2018,10,16,13,40,22.40
2018,10,16,13,41,22.50
2018,10,16,13,42,22.60
2018,10,16,13,43,22.60
2018,10,16,13,44,22.70
2018,10,16,13,45,22.70
2018,10,16,13,46,22.70
2018,10,16,13,47,22.70
2018,10,16,13,48,22.60
2018,10,16,13,49,22.60
2018,10,16,13,50,22.60
2018,10,16,13,51,22.60
2018,10,16,13,52,22.50
2018,10,16,13,53,22.50
2018,10,16,13,54,22.40
2018,10,16,13,55,22.40
2018,10,16,13,56,22.30
2018,10,16,13,57,22.20
2018,10,16,13,58,22.20
2018,10,16,13,59,22.30
2018,10,16,14,00,22.30
2018,10,16,14,01,22.40
2018,10,16,14,02,22.50
2018,10,16,14,03,22.50
2018,10,16,14,04,22.60
2018,10,16,14,05,22.70
2018,10,16,14,06,22.80
2018,10,16,14,07,22.90
2018,10,16,14,08,23.00
2018,10,16,14,09,23.10
2018,10,16,14,10,23.10
2018,10,16,14,11,23.10
2018,10,16,14,12,23.10
2018,10,16,14,13,23.10
2018,10,16,14,14,23.00
2018,10,16,14,15,23.00
2018,10,16,14,16,22.90
2018,10,16,14,17,22.90
2018,10,16,14,18,22.90
2018,10,16,14,19,22.80
2018,10,16,14,20,22.80
2018,10,16,14,21,22.80
2018,10,16,14,22,22.80
2018,10,16,14,23,22.80
2018,10,16,14,24,22.80
2018,10,16,14,25,22.80
2018,10,16,14,26,22.80
2018,10,16,14,27,22.80
2018,10,16,14,28,22.90
2018,10,16,14,29,23.00
2018,10,16,14,30,23.00
2018,10,16,14,31,23.10
2018,10,16,14,32,23.10
2018,10,16,14,33,23.10
2018,10,16,14,34,23.10
2018,10,16,14,35,23.10
2018,10,16,14,36,23.20
2018,10,16,14,37,23.20
2018,10,16,14,38,23.20
2018,10,16,14,39,23.20
2018,10,16,14,40,23.30
2018,10,16,14,41,23.30
2018,10,16,14,42,23.30
2018,10,16,14,43,23.40
2018,10,16,14,44,23.40
2018,10,16,14,45,23.40
2018,10,16,14,46,23.40
2018,10,16,14,47,23.50
2018,10,16,14,48,23.50
2018,10,16,14,49,23.60
2018,10,16,14,50,23.60
2018,10,16,14,51,23.70
2018,10,16,14,52,23.70
2018,10,16,14,53,23.70
2018,10,16,14,54,23.60
2018,10,16,14,55,23.60
2018,10,16,14,56,23.50
2018,10,16,14,57,23.40
2018,10,16,14,58,23.40
2018,10,16,14,59,23.40
2018,10,16,15,00,23.30
2018,10,16,15,01,23.20
2018,10,16,15,02,23.20
2018,10,16,15,03,23.20
2018,10,16,15,04,23.10
2018,10,16,15,05,23.00
2018,10,16,15,06,22.90
2018,10,16,15,07,22.90
2018,10,16,15,08,22.80
2018,10,16,15,09,22.80
2018,10,16,15,10,22.80
2018,10,16,15,11,22.80
2018,10,16,15,12,22.80
2018,10,16,15,13,22.80
2018,10,16,15,14,22.70
2018,10,16,15,15,22.70
2018,10,16,15,16,22.70
2018,10,16,15,17,22.70
2018,10,16,15,18,22.60
2018,10,16,15,19,22.60
2018,10,16,15,20,22.50
2018,10,16,15,21,22.50
2018,10,16,15,22,22.50
2018,10,16,15,23,22.40
2018,10,16,15,24,22.40
2018,10,16,15,25,22.40
2018,10,16,15,26,22.40
2018,10,16,15,27,22.40
2018,10,16,15,28,22.30
2018,10,16,15,29,22.30
2018,10,16,15,30,22.20
2018,10,16,15,31,22.20
2018,10,16,15,32,22.10
2018,10,16,15,33,22.10
2018,10,16,15,34,22.00
2018,10,16,15,35,22.00
2018,10,16,15,36,21.90
2018,10,16,15,37,21.90
2018,10,16,15,38,21.90
2018,10,16,15,39,21.80
2018,10,16,15,40,21.80
2018,10,16,15,41,21.80
2018,10,16,15,42,21.80
2018,10,16,15,43,21.80
2018,10,16,15,44,21.80
2018,10,16,15,45,21.80
2018,10,16,15,46,21.80
2018,10,16,15,47,21.80
2018,10,16,15,48,21.80
2018,10,16,15,49,21.80
2018,10,16,15,50,21.80
2018,10,16,15,51,21.80
2018,10,16,15,52,21.80
2018,10,16,15,53,21.80
2018,10,16,15,54,21.80
2018,10,16,15,55,21.80
2018,10,16,15,56,21.80
2018,10,16,15,57,21.80
2018,10,16,15,58,21.70
2018,10,16,15,59,21.70
2018,10,16,16,00,21.70
2018,10,16,16,01,21.60
2018,10,16,16,02,21.60
2018,10,16,16,03,21.60
2018,10,16,16,04,21.50
2018,10,16,16,05,21.50
2018,10,16,16,06,21.50
2018,10,16,16,07,21.40
2018,10,16,16,08,21.40
2018,10,16,16,09,21.40
2018,10,16,16,10,21.30
2018,10,16,16,11,21.30
2018,10,16,16,12,21.30
2018,10,16,16,13,21.30
2018,10,16,16,14,21.30
2018,10,16,16,15,21.30
2018,10,16,16,16,21.20
2018,10,16,16,17,21.20
2018,10,16,16,18,21.20
2018,10,16,16,19,21.20
2018,10,16,16,20,21.20
2018,10,16,16,21,21.20
2018,10,16,16,22,21.20
2018,10,16,16,23,21.20
2018,10,16,16,24,21.20
2018,10,16,16,25,21.20
2018,10,16,16,26,21.10
2018,10,16,16,27,21.10
2018,10,16,16,28,21.10
2018,10,16,16,29,21.10
2018,10,16,16,30,21.10
2018,10,16,16,31,21.00
2018,10,16,16,32,21.00
2018,10,16,16,33,20.90
2018,10,16,16,34,20.90
2018,10,16,16,35,20.90
2018,10,16,16,36,20.90
2018,10,16,16,37,20.80
2018,10,16,16,38,20.80
2018,10,16,16,39,20.80
2018,10,16,16,40,20.70
2018,10,16,16,41,20.70
2018,10,16,16,42,20.70
2018,10,16,16,43,20.60
2018,10,16,16,44,20.60
2018,10,16,16,45,20.50
2018,10,16,16,46,20.50
2018,10,16,16,47,20.50
2018,10,16,16,48,20.40
2018,10,16,16,49,20.40
2018,10,16,16,50,20.40
2018,10,16,16,51,20.30
2018,10,16,16,52,20.30
2018,10,16,16,53,20.30
2018,10,16,16,54,20.30
2018,10,16,16,55,20.30
2018,10,16,16,56,20.30
2018,10,16,16,57,20.30
2018,10,16,16,58,20.30
2018,10,16,16,59,20.20
2018,10,16,17,00,20.20
2018,10,16,17,01,20.20
2018,10,16,17,02,20.10
2018,10,16,17,03,20.10
2018,10,16,17,04,20.10
2018,10,16,17,05,20.10
2018,10,16,17,06,20.00
2018,10,16,17,07,20.00
2018,10,16,17,08,20.00
2018,10,16,17,09,19.90
2018,10,16,17,10,19.90
2018,10,16,17,11,19.90
2018,10,16,17,12,19.90
2018,10,16,17,13,19.90
2018,10,16,17,14,19.90
2018,10,16,17,15,19.90
2018,10,16,17,16,19.80
2018,10,16,17,17,19.80
2018,10,16,17,18,19.80
2018,10,16,17,19,19.80
2018,10,16,17,20,19.70
2018,10,16,17,21,19.70
2018,10,16,17,22,19.70
2018,10,16,17,23,19.70
2018,10,16,17,24,19.60
2018,10,16,17,25,19.60
2018,10,16,17,26,19.60
2018,10,16,17,27,19.50
2018,10,16,17,28,19.50
2018,10,16,17,29,19.50
2018,10,16,17,30,19.40
2018,10,16,17,31,19.40
2018,10,16,17,32,19.40
2018,10,16,17,33,19.40
2018,10,16,17,34,19.40
2018,10,16,17,35,19.30
2018,10,16,17,36,19.30
2018,10,16,17,37,19.20
2018,10,16,17,38,19.20
2018,10,16,17,39,19.10
2018,10,16,17,40,19.10
2018,10,16,17,41,19.00
2018,10,16,17,42,19.00
2018,10,16,17,43,18.90
2018,10,16,17,44,18.90
2018,10,16,17,45,18.80
2018,10,16,17,46,18.80